• în Republica Moldova
  • Lista ţărilor
  • Pe 7 zile
  • Temperatura apei
  • Hartă satelitară
  • Meteo pe hartă
  • Widget-uri
  • user-avatar
    Intrare

    Meteo pe oră la Kaprun

    Astăzi, 20 Ianuarie, Vineri

    Timp Temperatura Precipitaţii Vânt Presiune Umiditate
    00:00 -20°C° 0 mm 2 m/s 595 mmHg 88%
    01:00 -19°C° 0 mm 2 m/s 596 mmHg 86%
    02:00 -19°C° 0 mm 2 m/s 596 mmHg 85%
    03:00 -19°C° 0 mm 2 m/s 596 mmHg 85%
    04:00 -19°C° 0 mm 2 m/s 596 mmHg 84%
    05:00 -19°C° 0 mm 2 m/s 596 mmHg 84%
    06:00 -19°C° 0 mm 2 m/s 596 mmHg 84%
    07:00 -19°C° 0 mm 2 m/s 596 mmHg 84%
    08:00 -16°C° 0 mm 2 m/s 597 mmHg 84%
    09:00 -14°C° 0 mm 2 m/s 598 mmHg 84%
    10:00 -12°C° 0 mm 2 m/s 600 mmHg 84%
    11:00 -9°C° 0 mm 2 m/s 600 mmHg 86%
    12:00 -7°C° 0 mm 1 m/s 600 mmHg 88%
    13:00 -6°C° 0 mm 1 m/s 601 mmHg 90%
    14:00 -7°C° 0 mm 1 m/s 600 mmHg 91%
    15:00 -9°C° 0 mm 1 m/s 599 mmHg 92%
    16:00 -11°C° 0 mm 1 m/s 598 mmHg 94%
    17:00 -12°C° 0 mm 1 m/s 597 mmHg 93%
    18:00 -14°C° 0 mm 1 m/s 596 mmHg 93%
    19:00 -18°C° 0 mm 2 m/s 595 mmHg 92%
    20:00 -18°C° 0 mm 2 m/s 595 mmHg 91%
    21:00 -18°C° 0 mm 2 m/s 596 mmHg 89%
    22:00 -18°C° 0 mm 2 m/s 596 mmHg 88%
    23:00 -18°C° 0 mm 2 m/s 596 mmHg 87%

    Mâine, 21 Ianuarie, Sâmbătă

    Timp Temperatura Precipitaţii Vânt Presiune Umiditate
    00:00 -18°C° 0 mm 2 m/s 596 mmHg 86%
    01:00 -18°C° 0 mm 2 m/s 595 mmHg 85%
    02:00 -18°C° 0 mm 2 m/s 595 mmHg 85%
    03:00 -18°C° 0 mm 2 m/s 595 mmHg 84%
    04:00 -18°C° 0 mm 2 m/s 595 mmHg 84%
    05:00 -18°C° 0 mm 2 m/s 595 mmHg 83%
    06:00 -18°C° 0 mm 2 m/s 595 mmHg 83%
    07:00 -18°C° 0 mm 2 m/s 595 mmHg 83%
    08:00 -16°C° 0 mm 2 m/s 596 mmHg 82%
    09:00 -11°C° 0 mm 1 m/s 598 mmHg 82%
    10:00 -9°C° 0 mm 1 m/s 599 mmHg 81%
    11:00 -7°C° 0 mm 1 m/s 599 mmHg 83%
    12:00 -6°C° 0 mm 1 m/s 600 mmHg 86%
    13:00 -3°C° 0 mm 1 m/s 600 mmHg 88%
    14:00 -6°C° 0 mm 1 m/s 599 mmHg 90%
    15:00 -9°C° 0 mm 1 m/s 598 mmHg 91%
    16:00 -11°C° 0 mm 1 m/s 596 mmHg 93%
    17:00 -12°C° 0 mm 1 m/s 596 mmHg 92%
    18:00 -14°C° 0 mm 1 m/s 595 mmHg 91%
    19:00 -17°C° 0 mm 2 m/s 595 mmHg 91%
    20:00 -17°C° 0 mm 2 m/s 595 mmHg 89%
    21:00 -17°C° 0 mm 2 m/s 595 mmHg 87%
    22:00 -16°C° 0 mm 2 m/s 595 mmHg 85%
    23:00 -16°C° 0 mm 2 m/s 595 mmHg 85%

    Poimâine, 22 Ianuarie, Duminică

    Timp Temperatura Precipitaţii Vânt Presiune Umiditate
    00:00 -16°C° 0 mm 2 m/s 595 mmHg 85%
    01:00 -16°C° 0 mm 2 m/s 595 mmHg 85%
    02:00 -16°C° 0 mm 2 m/s 595 mmHg 85%
    03:00 -16°C° 0 mm 2 m/s 595 mmHg 85%
    04:00 -16°C° 0 mm 2 m/s 595 mmHg 85%
    05:00 -16°C° 0 mm 2 m/s 595 mmHg 85%
    06:00 -17°C° 0 mm 2 m/s 594 mmHg 85%
    07:00 -17°C° 0 mm 2 m/s 594 mmHg 85%
    08:00 -15°C° 0 mm 2 m/s 595 mmHg 84%
    09:00 -13°C° 0 mm 2 m/s 596 mmHg 84%
    10:00 -10°C° 0 mm 2 m/s 597 mmHg 84%
    11:00 -9°C° 0 mm 2 m/s 598 mmHg 86%
    12:00 -7°C° 0 mm 2 m/s 598 mmHg 88%
    13:00 -6°C° 0 mm 2 m/s 598 mmHg 90%
    14:00 -7°C° 0 mm 2 m/s 597 mmHg 90%
    15:00 -8°C° 0 mm 2 m/s 597 mmHg 91%
    16:00 -9°C° 0 mm 2 m/s 596 mmHg 91%
    17:00 -12°C° 0 mm 2 m/s 595 mmHg 91%
    18:00 -13°C° 0 mm 2 m/s 595 mmHg 90%
    19:00 -14°C° 0 mm 2 m/s 594 mmHg 90%
    20:00 -15°C° 0 mm 2 m/s 594 mmHg 90%
    21:00 -15°C° 0 mm 2 m/s 594 mmHg 90%
    22:00 -15°C° 0 mm 2 m/s 594 mmHg 89%
    23:00 -15°C° 0 mm 2 m/s 594 mmHg 89%

    23 Ianuarie, Luni

    Timp Temperatura Precipitaţii Vânt Presiune Umiditate
    00:00 -15°C° 0 mm 2 m/s 593 mmHg 88%
    01:00 -15°C° 0 mm 2 m/s 593 mmHg 87%
    02:00 -15°C° 0 mm 2 m/s 593 mmHg 88%
    03:00 -15°C° 0 mm 2 m/s 593 mmHg 89%
    04:00 -15°C° 0 mm 2 m/s 593 mmHg 90%
    05:00 -15°C° 0 mm 2 m/s 592 mmHg 90%
    06:00 -15°C° 0 mm 2 m/s 592 mmHg 91%
    07:00 -14°C° 0 mm 1 m/s 591 mmHg 91%
    08:00 -11°C° 0 mm 1 m/s 593 mmHg 90%
    09:00 -9°C° 0 mm 1 m/s 594 mmHg 89%
    10:00 -6°C° 0 mm 1 m/s 596 mmHg 88%
    11:00 -4°C° 0 mm 1 m/s 596 mmHg 90%
    12:00 -3°C° 0 mm 1 m/s 596 mmHg 92%
    13:00 -2°C° 0 mm 1 m/s 596 mmHg 94%
    14:00 -3°C° 0 mm 1 m/s 595 mmHg 94%
    15:00 -6°C° 0 mm 1 m/s 594 mmHg 95%
    16:00 -7°C° 0 mm 1 m/s 593 mmHg 95%
    17:00 -11°C° 0 mm 0 m/s 591 mmHg 96%
    18:00 -15°C° 0 mm 0 m/s 589 mmHg 98%
    19:00 -19°C° 0 mm 0 m/s 586 mmHg 99%
    20:00 -19°C° 0 mm 0 m/s 586 mmHg 99%
    21:00 -19°C° 0 mm 0 m/s 586 mmHg 99%
    22:00 -19°C° 0 mm 0 m/s 586 mmHg 99%
    23:00 -19°C° 0 mm 0 m/s 586 mmHg 99%

    24 Ianuarie, Marţi

    Timp Temperatura Precipitaţii Vânt Presiune Umiditate
    00:00 -19°C° 0 mm 0 m/s 586 mmHg 98%
    01:00 -19°C° 0 mm 0 m/s 586 mmHg 98%
    02:00 -19°C° 0 mm 0 m/s 586 mmHg 98%
    03:00 -19°C° 0 mm 0 m/s 586 mmHg 98%
    04:00 -18°C° 0 mm 1 m/s 586 mmHg 98%
    05:00 -18°C° 0 mm 1 m/s 587 mmHg 97%
    06:00 -17°C° 0 mm 1 m/s 588 mmHg 97%
    07:00 -16°C° 0 mm 1 m/s 588 mmHg 97%
    08:00 -13°C° 0 mm 1 m/s 591 mmHg 95%
    09:00 -10°C° 0 mm 1 m/s 593 mmHg 93%
    10:00 -7°C° 0 mm 1 m/s 595 mmHg 91%
    11:00 -6°C° 0 mm 1 m/s 595 mmHg 91%
    12:00 -4°C° 0 mm 1 m/s 595 mmHg 91%
    13:00 -3°C° 0 mm 1 m/s 596 mmHg 91%
    14:00 -4°C° 0 mm 1 m/s 595 mmHg 93%
    15:00 -7°C° 0 mm 1 m/s 594 mmHg 95%
    16:00 -8°C° 0 mm 1 m/s 594 mmHg 97%
    17:00 -10°C° 0 mm 1 m/s 593 mmHg 96%
    18:00 -13°C° 0 mm 1 m/s 592 mmHg 96%
    19:00 -15°C° 0 mm 1 m/s 591 mmHg 95%
    20:00 -16°C° 0 mm 1 m/s 591 mmHg 93%
    21:00 -17°C° 0 mm 1 m/s 591 mmHg 90%
    22:00 -18°C° 0 mm 1 m/s 590 mmHg 88%
    23:00 -18°C° 0 mm 1 m/s 590 mmHg 87%

    25 Ianuarie, Miercuri

    Timp Temperatura Precipitaţii Vânt Presiune Umiditate
    00:00 -18°C° 0 mm 1 m/s 590 mmHg 86%
    01:00 -18°C° 0 mm 1 m/s 590 mmHg 86%
    02:00 -19°C° 0 mm 1 m/s 590 mmHg 86%
    03:00 -19°C° 0 mm 1 m/s 590 mmHg 86%
    04:00 -19°C° 0 mm 1 m/s 590 mmHg 86%
    05:00 -19°C° 0 mm 1 m/s 590 mmHg 86%
    06:00 -19°C° 0 mm 1 m/s 590 mmHg 86%
    07:00 -19°C° 0 mm 1 m/s 590 mmHg 85%
    08:00 -16°C° 0 mm 1 m/s 592 mmHg 83%
    09:00 -12°C° 0 mm 1 m/s 595 mmHg 81%
    10:00 -8°C° 0 mm 1 m/s 597 mmHg 79%
    11:00 -7°C° 0 mm 1 m/s 597 mmHg 80%
    12:00 -6°C° 0 mm 1 m/s 597 mmHg 81%
    13:00 -4°C° 0 mm 0 m/s 598 mmHg 82%
    14:00 -6°C° 0 mm 0 m/s 597 mmHg 85%
    15:00 -8°C° 0 mm 0 m/s 596 mmHg 88%
    16:00 -10°C° 0 mm 0 m/s 595 mmHg 91%
    17:00 -13°C° 0 mm 0 m/s 593 mmHg 93%
    18:00 -17°C° 0 mm 0 m/s 591 mmHg 95%
    19:00 -20°C° 0 mm 0 m/s 589 mmHg 97%
    20:00 -20°C° 0 mm 0 m/s 589 mmHg 95%
    21:00 -20°C° 0 mm 0 m/s 589 mmHg 93%
    22:00 -20°C° 0 mm 0 m/s 589 mmHg 91%
    23:00 -20°C° 0 mm 0 m/s 589 mmHg 89%
    Arată mai mult